Newton, KS

11:34 AM CST on December 05, 2019 (GMT -0600)
Newton City County

Weather History for KEWK - October, 2019

Change the Weather History Date:

Friday, October 11, 2019

  Actual Average Record
Temperature  
Mean Temperature 40 °F -  
Max Temperature 50 °F 67 °F 87 °F (2015)
Min Temperature 30 °F 46 °F 30 °F (2019)
Degree Days  
Heating Degree Days 25    
Moisture  
Dew Point 23 °F    
Average Humidity 55    
Maximum Humidity 79    
Minimum Humidity 28    
Precipitation  
Precipitation 0.00 in - - ()
Sea Level Pressure  
Sea Level Pressure 30.27 in    
Wind  
Wind Speed 18 mph (NW)    
Max Wind Speed 25 mph    
Max Gust Speed 32 mph    
Visibility 10 miles    
Events      
Averages and records for this station are not official NWS values.
T = Trace of Precipitation, MM = Missing Value Source: NWS Daily Summary

Daily Weather History Graph

Daily Weather History Graph

Search for Another Location

Airport or City:

Astronomy

Oct. 11, 2019 Rise Set
Actual Time 7:33 AM CDT 6:57 PM CDT
Civil Twilight 7:07 AM CDT 7:23 PM CDT
Nautical Twilight 6:36 AM CDT 7:54 PM CDT
Astronomical Twilight 6:06 AM CDT 8:24 PM CDT
Moon 6:24 PM CDT (10/11) 5:18 AM CDT (10/11)
Length of Visible Light 12h 16m
Length of Day
11h 23m
Waxing Gibbous, 96% of the Moon is Illuminated
Oct 11
Waxing Gibbous
Oct 13
Full
Oct 21
Last Quarter
Oct 27
New
Nov 4
First Quarter

Hourly Weather History & Observations

Time (CDT) Temp. Windchill Dew Point Humidity Pressure Visibility Wind Dir Wind Speed Gust Speed Precip Events Conditions
12:56 AM 35.1 °F 23.5 °F 27.0 °F 72% 30.18 in 10.0 mi NNW 21.9 mph 28.8 mph N/A   Clear
1:56 AM 36.0 °F 25.0 °F 27.0 °F 70% 30.19 in 10.0 mi NW 20.7 mph - N/A   Scattered Clouds
2:56 AM 35.1 °F 22.7 °F 25.0 °F 67% 30.20 in 10.0 mi NNW 25.3 mph 32.2 mph N/A   Overcast
3:56 AM 34.0 °F 21.8 °F 25.0 °F 70% 30.23 in 10.0 mi NW 23.0 mph 29.9 mph N/A   Scattered Clouds
4:56 AM 33.1 °F 22.2 °F 24.1 °F 70% 30.25 in 10.0 mi NW 17.3 mph - N/A   Clear
5:56 AM 32.0 °F 23.0 °F 25.0 °F 75% 30.27 in 10.0 mi NW 11.5 mph - N/A   Clear
6:56 AM 30.9 °F 20.7 °F 25.0 °F 79% 30.28 in 10.0 mi NW 13.8 mph 20.7 mph N/A   Clear
7:56 AM 30.0 °F 20.0 °F 24.1 °F 79% 30.30 in 10.0 mi WNW 12.7 mph - N/A   Clear
8:56 AM 32.0 °F 20.1 °F 23.0 °F 69% 30.33 in 10.0 mi WNW 19.6 mph 24.2 mph N/A   Clear
9:56 AM 35.1 °F 23.5 °F 23.0 °F 61% 30.35 in 10.0 mi NW 21.9 mph 28.8 mph N/A   Clear
10:56 AM 39.9 °F 29.7 °F 21.9 °F 49% 30.35 in 10.0 mi NNW 23.0 mph 28.8 mph N/A   Clear
12:56 PM 44.1 °F 36.2 °F 21.0 °F 40% 30.31 in 10.0 mi NNW 18.4 mph 26.5 mph N/A   Clear
1:56 PM 46.9 °F - 21.0 °F 36% 30.30 in 10.0 mi NW 17.3 mph 24.2 mph N/A   Clear
2:56 PM 48.0 °F - 19.0 °F 32% 30.28 in 10.0 mi NW 18.4 mph 24.2 mph N/A   Clear
3:56 PM 48.9 °F - 18.0 °F 29% 30.27 in 10.0 mi NW 24.2 mph 29.9 mph N/A   Clear
4:56 PM 50.0 °F - 18.0 °F 28% 30.26 in 10.0 mi NW 20.7 mph 26.5 mph N/A   Clear
5:56 PM 48.0 °F - 18.0 °F 30% 30.27 in 10.0 mi WNW 12.7 mph 23.0 mph N/A   Clear
6:56 PM 45.0 °F 41.8 °F 21.0 °F 39% 30.25 in 10.0 mi NW 5.8 mph - N/A   Clear
7:56 PM 41.0 °F - 23.0 °F 49% 30.26 in 10.0 mi Calm Calm - N/A   Clear
8:56 PM 39.0 °F 36.8 °F 23.0 °F 53% 30.26 in 10.0 mi WSW 3.5 mph - N/A   Clear
9:56 PM 37.0 °F 32.4 °F 23.0 °F 57% 30.27 in 10.0 mi SSW 5.8 mph - N/A   Clear
10:56 PM 39.0 °F 35.7 °F 21.9 °F 50% 30.26 in 10.0 mi WSW 4.6 mph - N/A   Clear
11:56 PM 37.0 °F 33.3 °F 21.9 °F 54% 30.25 in 10.0 mi WSW 4.6 mph - N/A   Clear